Wind_Speed
68 70 74 80 83 85 87 87 87 87 89 91 91 91 90 90 90 90 91 92 92 91 89 87 84 83 84 84 85 86 85 83 82 83 86 87 86 83 81 77 75 73 70 70 71 71 70 71 72 73 73 70 66 65 65 64 63 63 61 60 59 58 57 57 57 54 51 49 48 46 45 46 47 49 48 45 41 40 40 40 40 39 38 37 37 37
65 70 75 79 79 79 80 82 84 86 88 90 91 92 92 91 92 93 93 94 94 92 90 91 89 86 87 88 88 87 85 83 82 83 85 87 88 86 83 80 77 75 74 73 73 71 69 68 68 69 70 70 68 68 68 66 65 64 62 62 62 60 59 59 58 55 51 50 49 47 46 45 47 48 47 44 42 41 42 42 43 42 41 40 39 39
59 67 74 75 73 73 76 79 82 85 87 88 90 91 92 92 93 95 95 96 97 94 91 93 92 89 89 90 90 89 86 84 84 85 85 86 88 87 84 81 78 77 76 75 74 72 70 68 67 67 66 66 68 70 69 68 66 64 62 62 63 62 61 61 60 57 53 51 51 50 48 47 47 47 46 44 43 43 44 45 45 45 44 42 42 42
54 62 67 67 68 72 76 78 80 82 85 87 89 90 91 93 94 95 96 98 98 95 93 94 93 90 91 93 92 91 88 86 86 87 86 86 87 86 84 83 81 79 77 76 76 74 72 69 67 65 63 63 65 67 67 66 65 63 62 63 63 63 63 63 61 58 54 52 52 53 51 49 49 49 47 46 45 45 46 47 47 47 45 44 44 44
48 54 59 61 66 71 74 77 79 81 83 85 87 89 90 93 94 94 96 98 98 95 94 96 94 90 92 95 95 94 92 89 89 88 87 86 86 86 85 84 82 80 78 77 77 76 74 71 68 66 65 63 63 62 62 63 64 63 64 64 64 64 65 64 61 58 56 54 54 53 52 51 51 51 50 49 47 48 49 49 49 47 46 45 45 45
42 47 51 56 61 65 70 74 78 81 83 85 86 88 90 92 93 93 95 97 97 95 95 97 96 91 92 95 95 95 94 91 91 90 88 87 87 87 87 84 82 81 80 78 78 78 76 73 71 69 67 64 62 61 61 62 63 64 64 64 64 64 65 63 60 58 57 56 55 54 52 51 52 53 52 51 50 51 51 51 49 47 46 46 45 45
39 42 45 50 54 57 62 67 74 79 80 82 84 86 90 92 92 92 93 95 95 95 96 97 95 90 91 93 93 95 95 93 93 92 89 88 88 88 88 85 83 82 81 80 80 79 78 76 74 72 69 65 63 62 63 63 63 63 62 61 62 64 64 61 58 57 57 57 55 53 52 52 53 53 52 51 51 51 51 50 48 47 46 46 45 45
37 40 42 44 48 51 54 59 65 69 71 74 80 85 87 89 91 92 92 93 93 95 98 97 93 90 90 91 93 96 97 95 95 93 91 90 90 90 90 88 85 83 82 82 82 81 80 77 76 75 71 68 66 66 66 65 63 62 61 60 61 62 61 59 57 56 57 57 55 53 51 51 51 52 50 49 49 50 49 48 47 47 46 45 45 44
32 37 40 41 43 47 50 53 56 59 61 67 76 82 84 85 88 91 93 93 93 96 97 95 94 89 87 91 96 98 98 97 97 95 93 94 93 92 92 91 87 84 83 83 83 83 82 80 78 77 75 72 70 70 68 65 63 63 62 61 61 61 60 57 56 55 56 56 54 52 50 48 49 50 49 47 48 48 47 47 46 46 46 45 44 43
29 32 36 38 40 43 46 48 51 54 56 61 68 74 78 82 85 88 92 94 94 94 92 92 95 90 86 92 99 101 99 97 97 98 97 97 97 95 95 94 91 87 84 84 83 83 83 82 80 80 78 76 74 71 69 67 65 64 62 61 61 61 59 57 55 55 55 55 53 51 49 47 48 50 48 46 46 46 45 45 45 46 46 45 44 43
29 29 31 34 37 40 42 44 47 51 55 57 61 65 70 75 80 84 88 90 93 90 86 89 95 93 88 93 99 101 100 98 98 99 99 99 99 97 97 96 94 91 87 85 84 83 83 83 83 82 80 78 77 74 71 69 66 64 62 62 62 61 58 57 56 55 54 53 53 52 48 46 49 49 46 44 45 45 44 44 45 46 45 44 43 42
26 28 30 31 33 35 37 40 43 47 52 55 58 61 64 68 72 78 82 86 88 83 81 89 99 99 90 88 95 100 99 98 98 98 99 100 101 100 99 98 98 95 90 87 85 84 83 83 83 84 81 79 78 75 73 70 67 65 64 63 62 60 58 57 56 55 54 54 54 52 47 47 48 47 45 45 44 44 44 44 45 45 45 44 42 42
21 25 28 30 32 33 34 36 39 43 47 52 56 59 62 64 67 71 74 79 81 79 82 92 100 100 89 84 92 99 99 99 99 99 100 101 102 102 102 101 100 98 93 89 86 84 83 82 82 83 82 80 78 75 73 71 68 67 66 64 62 60 59 58 57 56 56 56 55 51 47 48 48 47 46 46 45 45 44 44 45 45 45 44 43 43
16 20 24 27 30 32 34 34 36 39 42 46 51 56 59 61 63 64 67 72 76 78 84 90 93 94 87 81 87 95 98 101 101 100 101 101 102 104 104 103 102 100 97 92 88 85 83 82 81 82 81 80 78 76 74 73 71 69 68 65 63 61 60 59 58 58 58 58 55 50 48 49 49 48 47 46 46 45 45 45 45 45 45 44 44 44
18 18 20 23 26 29 32 33 34 36 38 40 45 50 53 57 60 62 64 69 72 74 78 82 84 86 82 79 83 91 97 101 101 99 99 101 101 102 104 105 103 102 100 95 91 86 84 82 82 82 81 78 77 77 76 74 73 71 69 66 64 63 61 59 59 60 60 60 55 50 49 49 49 48 47 47 46 46 46 46 45 45 45 45 45 45
21 20 20 21 23 25 28 31 33 33 35 36 38 42 46 53 59 60 62 65 68 68 69 73 77 78 77 78 82 87 92 97 98 96 97 99 100 100 103 105 105 104 102 99 95 90 86 83 82 82 81 78 76 76 76 75 73 72 70 67 66 63 61 60 61 61 62 61 55 51 50 49 48 47 47 47 48 47 47 46 46 46 46 46 46 47
21 20 20 20 20 22 24 27 30 31 33 34 34 37 41 47 51 53 56 60 62 61 60 65 71 72 74 75 78 84 89 92 94 95 95 97 99 101 102 104 107 107 105 102 98 93 88 84 82 82 81 78 75 75 75 74 72 71 70 69 67 64 61 60 61 63 63 61 55 51 50 49 47 46 46 47 48 48 47 47 47 47 47 47 47 48
20 19 19 19 18 19 21 24 26 28 30 31 32 33 36 39 42 44 49 54 57 56 56 60 62 65 69 70 73 83 88 89 91 93 95 97 100 103 104 106 108 109 108 105 101 96 91 86 83 82 81 78 74 73 72 72 71 70 70 69 67 64 62 61 64 65 65 60 54 51 49 48 47 46 46 48 49 49 48 48 48 48 48 48 49 49
21 18 17 17 17 17 19 20 23 24 25 27 29 30 31 33 36 38 41 46 50 50 51 55 57 61 66 67 72 82 85 86 88 90 94 98 102 106 107 108 109 109 108 107 103 98 92 87 84 82 80 78 74 72 71 70 70 69 68 67 65 64 63 65 67 67 64 58 53 51 49 48 48 48 48 49 50 50 49 49 49 49 49 49 49 49
22 21 19 18 17 16 17 19 20 21 22 22 24 27 28 29 30 33 36 38 41 43 45 51 55 60 64 66 71 77 79 82 86 90 96 101 105 106 106 108 109 107 106 106 104 100 94 88 85 82 80 78 75 72 70 69 68 66 65 64 63 63 64 67 68 67 62 57 54 51 50 50 50 51 51 51 51 51 50 50 50 50 50 50 50 49
25 24 23 22 20 18 18 18 18 18 18 17 19 21 23 25 26 29 32 33 36 38 41 47 53 58 61 63 67 72 76 81 87 92 98 102 105 106 104 106 107 105 104 104 103 101 95 89 86 83 81 78 75 72 70 68 66 63 62 61 60 62 65 67 67 65 60 56 54 52 51 52 52 53 53 53 52 51 51 51 51 50 50 49 48 47
29 26 24 24 23 22 21 19 17 16 15 14 14 16 19 21 23 25 27 28 30 33 35 40 46 52 56 58 63 71 77 82 87 93 97 101 104 104 103 104 105 104 104 103 101 100 97 91 87 85 82 79 76 72 69 67 65 62 60 58 60 62 64 64 63 60 57 55 53 52 51 52 53 53 52 52 51 50 50 50 49 49 48 47 46 44
30 27 25 25 24 24 23 21 18 15 13 12 11 12 14 17 19 21 22 23 25 28 31 35 41 47 52 55 62 70 76 81 86 91 95 98 100 102 101 101 102 103 103 102 101 99 97 92 88 86 83 79 75 72 69 67 64 61 59 59 61 61 61 60 59 56 53 52 50 50 50 51 51 50 50 49 49 48 48 48 47 46 45 44 43 41
29 25 23 23 23 24 23 20 18 15 13 11 10 10 11 13 15 17 19 21 24 27 30 33 39 45 50 55 62 68 72 77 82 85 89 92 95 99 100 99 100 102 103 103 101 99 97 94 90 87 84 79 74 71 68 66 63 61 60 61 61 59 58 57 54 52 50 48 47 48 49 49 48 47 47 46 46 46 46 44 43 42 42 41 40 39
29 25 22 19 18 19 20 18 16 14 13 11 10 8 9 10 11 13 15 17 21 25 29 33 38 43 48 55 61 65 67 71 75 79 84 87 91 95 98 99 99 101 103 103 101 99 96 93 90 87 83 79 75 71 67 65 63 62 62 63 61 58 57 54 51 48 46 45 46 47 46 45 45 44 43 43 43 43 42 40 39 39 39 38 38 37
31 28 25 21 18 17 17 16 15 14 13 12 11 9 7 7 8 9 10 14 18 23 28 32 36 41 47 53 58 60 61 64 68 73 79 84 88 91 94 98 99 100 102 102 101 99 96 92 89 87 84 80 76 71 67 65 64 63 64 65 62 59 56 52 49 46 45 44 45 45 44 43 42 42 40 40 40 40 39 37 37 37 37 37 36 35
32 28 25 24 22 19 18 17 16 14 13 11 10 9 7 5 6 8 10 14 17 21 24 29 33 38 42 46 49 51 53 56 61 67 74 81 85 87 89 95 99 99 99 100 100 99 96 91 88 87 85 81 77 72 68 66 65 65 67 66 63 59 55 51 48 46 44 45 45 44 43 42 41 39 38 38 38 38 37 37 36 36 36 35 34 33
30 25 23 22 21 20 18 17 16 15 13 11 9 7 4 2 4 7 10 13 16 18 22 26 30 33 34 36 38 41 45 50 55 62 70 77 82 83 85 90 94 96 97 98 98 98 95 90 87 86 85 82 79 74 70 67 66 67 69 68 63 59 55 51 48 46 45 46 45 44 43 42 40 38 37 37 38 38 38 37 36 35 34 34 33 32
25 21 21 20 20 19 18 17 17 15 13 11 9 6 4 2 2 6 9 12 14 17 21 24 27 28 29 30 32 35 39 44 50 56 64 71 76 80 82 88 93 96 96 96 97 97 94 90 87 86 86 84 80 76 71 69 68 70 72 69 63 59 55 51 48 47 47 48 47 46 45 43 40 38 38 38 39 39 39 37 36 35 34 33 33 33
23 20 19 18 17 18 17 17 16 15 13 11 9 6 5 5 4 5 8 11 14 16 17 19 21 22 23 25 27 30 34 39 44 50 56 63 70 74 79 85 91 95 96 96 96 95 93 90 87 86 86 85 81 77 73 70 70 72 72 67 61 57 53 50 48 48 48 49 49 47 45 42 41 40 40 40 41 40 39 37 36 35 35 34 33 32
24 20 18 16 16 16 16 16 14 13 12 11 9 8 7 7 6 6 8 10 12 14 16 16 17 18 19 21 24 27 31 35 40 45 51 59 65 71 76 80 84 89 94 95 94 94 93 90 88 86 86 85 81 77 74 72 72 73 71 64 59 56 52 49 49 48 49 50 49 46 44 42 41 41 41 41 42 41 39 38 37 36 36 34 33 32
24 21 16 14 14 14 14 13 12 12 12 10 10 10 10 10 9 8 8 9 10 12 14 16 16 17 18 19 22 25 30 35 40 43 48 55 62 68 73 75 79 86 92 93 92 92 91 90 87 86 85 84 81 78 76 74 74 73 69 62 58 55 51 50 50 49 50 51 48 44 43 42 42 42 42 41 42 41 39 38 37 37 37 35 34 33
24 22 16 11 12 12 11 11 11 12 12 11 11 12 14 14 12 10 9 9 10 10 11 13 15 16 18 20 23 25 29 33 37 40 44 52 59 66 70 72 76 84 90 91 90 89 89 89 87 86 85 85 83 80 78 77 75 73 68 63 59 56 52 51 50 50 50 49 45 43 42 42 42 42 42 41 41 40 39 38 38 38 39 38 36 35
25 22 15 10 11 11 10 9 9 11 12 12 12 15 17 17 15 13 11 10 11 11 10 11 12 15 18 21 24 26 29 31 33 36 42 51 60 65 68 70 74 82 87 89 87 87 88 89 87 84 85 86 84 82 80 79 76 73 69 64 60 55 51 50 50 49 49 46 43 42 42 42 42 42 40 39 39 38 38 38 38 39 40 40 39 38
23 21 14 9 9 9 8 8 9 10 12 14 15 18 20 19 18 17 15 13 13 13 13 12 12 13 16 19 23 26 28 30 33 36 42 52 60 65 68 70 73 78 83 84 85 87 89 89 86 84 84 86 85 83 81 79 76 73 67 62 56 51 49 48 48 48 46 43 41 40 41 40 41 40 38 37 37 37 37 37 38 39 41 41 41 40
21 18 12 7 8 7 7 9 10 12 14 16 18 20 21 20 20 20 20 18 17 16 16 16 15 14 14 16 19 24 27 28 31 36 42 51 58 61 65 68 71 75 80 83 86 89 90 89 86 84 85 86 85 82 79 77 74 70 65 59 54 50 48 46 46 44 42 40 39 39 39 39 38 38 37 35 35 36 37 37 38 40 41 42 42 41
17 15 9 6 7 6 7 9 11 13 16 17 19 20 20 20 21 22 23 22 21 20 19 18 18 17 15 14 15 19 24 28 31 36 42 49 54 57 61 66 70 75 82 86 88 90 90 89 86 84 84 86 84 81 77 75 72 68 63 58 53 50 47 44 43 42 40 38 38 38 37 37 36 37 36 35 35 36 37 37 38 40 41 42 42 42
15 12 7 4 5 5 5 8 11 14 16 16 17 18 19 20 21 22 22 22 22 22 21 20 19 17 14 14 13 14 22 30 33 37 43 48 52 57 61 65 70 76 83 88 89 89 89 88 86 83 84 84 82 80 76 74 71 67 61 56 52 49 47 44 43 42 40 38 38 37 36 36 36 36 36 35 35 36 36 36 37 39 40 41 42 42
12 10 4 1 2 4 5 9 13 15 14 14 13 14 16 18 20 20 20 20 20 20 20 19 18 16 11 11 13 11 18 30 36 38 43 47 52 57 62 66 71 78 85 89 90 89 89 88 85 83 83 83 82 79 76 73 69 65 59 55 52 50 48 46 44 42 40 38 37 36 36 35 35 35 35 34 35 36 36 36 37 39 40 41 42 42
11 9 4 4 3 4 6 11 14 13 11 11 11 12 14 15 17 17 18 18 18 17 16 15 16 15 12 11 14 11 15 27 35 40 44 48 53 57 61 65 71 78 85 88 88 87 88 87 86 83 83 83 81 79 76 72 68 63 59 56 53 52 50 48 46 44 41 39 37 35 34 33 34 34 35 34 35 36 36 36 37 38 39 40 41 42
10 8 4 6 7 6 7 11 13 11 9 9 9 11 13 12 13 14 15 17 15 12 12 12 13 14 13 12 13 14 19 28 34 40 46 50 54 57 61 66 72 78 84 86 85 85 87 87 86 84 82 82 81 79 75 71 66 62 59 56 54 53 51 49 47 45 42 39 36 34 33 33 34 35 35 34 35 36 36 36 36 37 39 40 42 42
9 6 3 6 9 9 9 12 13 10 8 7 7 9 12 11 11 13 15 16 13 10 11 12 13 14 13 11 12 17 22 28 34 40 46 51 55 58 61 66 70 73 80 87 87 86 88 87 84 82 81 79 79 77 74 70 66 62 59 57 56 54 52 51 48 45 42 39 37 35 34 34 35 35 34 34 35 35 36 36 36 37 39 41 42 42
9 6 3 6 10 11 11 13 14 12 9 7 6 8 11 11 12 14 16 15 14 14 13 9 9 12 10 7 13 19 22 27 33 39 45 51 56 58 62 68 71 71 78 88 90 89 89 88 84 81 79 77 76 75 73 70 67 64 61 58 56 55 53 50 48 45 42 39 37 36 35 35 35 35 35 35 36 36 35 35 36 38 40 40 41 42
9 8 6 7 11 14 13 15 16 14 11 8 7 9 11 11 13 16 18 17 16 16 11 4 5 10 7 7 16 21 20 24 31 37 43 50 55 59 62 68 73 75 80 89 91 88 88 87 84 80 76 74 73 72 71 70 68 66 63 60 57 55 53 49 46 43 39 38 36 35 34 33 32 34 37 38 38 37 36 35 37 39 39 39 41 43
10 10 9 9 12 14 15 18 19 16 15 15 14 15 14 12 13 15 18 18 14 11 7 4 6 7 6 10 18 21 21 23 28 34 41 48 54 58 62 67 73 77 83 89 88 85 85 85 82 79 74 71 71 69 68 69 67 65 63 60 57 54 51 48 45 42 40 41 40 39 36 32 30 34 40 41 40 39 38 37 37 38 39 40 42 44
12 11 10 10 12 15 17 20 21 19 18 20 20 20 18 15 15 16 17 16 12 9 8 7 5 7 11 14 15 17 21 25 29 33 39 46 52 57 62 68 73 74 80 88 86 82 83 83 80 78 74 70 69 67 67 67 66 65 63 59 56 54 51 48 46 45 45 46 45 43 42 39 38 41 42 41 41 41 40 38 37 36 38 41 42 43
13 11 10 12 13 16 19 21 22 21 20 21 23 23 21 19 20 20 19 17 15 13 11 7 5 10 14 12 10 15 22 27 31 34 39 43 49 54 61 68 70 68 74 85 87 83 83 83 80 77 75 71 69 67 66 66 65 63 62 59 57 55 52 50 49 48 47 47 45 45 47 48 49 49 45 42 42 43 42 38 34 33 37 40 40 40
14 11 10 13 15 17 20 22 22 22 21 21 24 26 24 22 24 23 22 22 20 17 15 11 8 12 12 8 8 16 22 26 29 32 37 43 47 52 57 66 71 69 71 80 84 83 82 82 80 78 75 73 71 68 66 64 62 61 60 59 58 56 53 53 53 51 49 48 48 49 51 52 52 51 47 44 44 45 45 42 36 33 36 39 39 38
15 13 11 13 16 18 21 23 23 22 21 21 25 28 27 27 27 26 25 25 23 21 19 14 13 16 15 9 8 17 19 21 25 28 33 39 45 50 54 60 68 71 71 73 77 78 79 79 78 78 76 74 72 69 66 63 61 59 59 59 58 58 56 55 55 53 50 49 49 50 51 52 52 51 49 47 46 48 49 46 42 39 39 39 38 38
17 15 13 14 17 20 22 22 23 22 21 22 26 29 30 30 30 29 28 26 25 25 22 19 19 21 17 11 11 16 12 5 13 23 30 34 39 46 51 54 60 66 69 69 69 71 74 76 75 75 75 74 72 70 67 64 61 59 58 58 59 59 59 57 56 54 52 51 50 50 51 50 49 50 50 49 48 49 50 49 47 46 45 40 35 34
19 17 16 16 18 21 22 22 24 24 22 24 27 30 31 31 31 31 30 29 29 28 25 24 26 25 21 19 22 22 15 9 2 12 23 31 34 38 45 49 53 59 65 67 65 66 69 72 73 72 73 72 71 69 67 64 61 58 58 60 61 61 59 57 56 54 52 52 53 53 53 52 51 51 51 49 48 49 50 51 50 50 50 48 44 43
Wind_Direction
248 246 244 242 241 241 241 241 241 241 240 240 239 238 236 235 235 235 236 235 235 233 232 231 228 224 224 225 226 227 227 226 227 231 234 235 233 230 228 226 227 228 228 230 232 232 232 233 235 236 238 239 238 238 239 239 239 240 241 241 241 241 243 244 246 247 250 254 257 259 261 262 263 264 266 269 270 270 273 277 280 282 285 288 290 291
248 247 245 243 242 242 242 242 242 241 240 240 239 238 237 236 235 235 235 235 235 233 231 231 228 225 225 225 225 226 227 226 227 229 232 235 234 231 229 226 225 227 227 229 231 232 232 233 234 235 237 238 239 240 239 239 239 240 240 241 241 242 242 244 245 247 250 253 256 258 261 262 263 264 265 267 267 268 272 275 279 281 283 286 288 290
248 246 245 246 246 245 244 242 241 240 240 239 239 238 237 236 235 235 235 235 235 233 231 230 228 225 226 226 226 226 226 226 227 228 230 234 235 232 229 227 225 225 227 228 230 231 232 233 233 234 235 236 238 240 240 240 240 240 240 241 242 242 243 244 245 246 248 250 253 255 258 261 263 264 265 266 265 268 271 274 278 281 282 284 286 288
250 247 247 248 248 246 245 243 242 240 240 239 239 238 237 237 235 235 235 235 235 234 231 230 228 225 225 226 226 226 225 225 227 227 228 232 235 234 230 228 226 224 225 227 229 230 231 232 233 233 233 234 236 238 240 240 240 240 239 240 241 242 243 244 245 246 246 248 251 254 256 258 260 262 263 264 265 268 270 274 278 279 281 283 285 287
253 251 250 249 246 245 244 244 243 242 240 239 238 238 237 237 236 235 234 235 235 234 232 231 229 225 224 225 226 226 225 224 225 227 228 230 233 235 232 229 227 225 224 226 228 229 230 230 231 233 232 232 234 236 238 239 239 238 237 238 239 240 243 244 245 246 247 249 251 253 254 255 257 259 262 263 265 267 270 273 276 278 280 282 283 286
256 253 251 249 246 244 243 243 243 243 242 240 239 238 237 237 237 235 235 235 235 234 233 232 229 225 224 225 225 226 225 224 225 226 227 229 231 234 234 230 227 225 224 224 227 229 229 229 230 231 231 232 233 235 236 237 237 238 237 237 239 240 243 245 245 247 248 250 251 252 253 254 256 258 260 262 263 266 269 272 275 277 278 280 282 285
262 256 251 250 249 246 244 242 242 242 242 242 241 240 238 238 237 237 236 235 235 234 234 233 230 226 225 226 226 226 226 224 225 225 226 228 230 232 234 232 228 225 224 223 225 227 228 228 229 229 230 231 232 233 234 234 235 237 238 239 239 240 243 245 246 248 250 251 251 252 252 253 255 258 259 261 262 265 268 271 273 275 277 279 282 286
264 260 255 251 249 248 246 244 243 242 242 243 243 243 241 240 239 238 238 237 235 234 234 234 232 227 224 226 227 226 226 224 224 225 225 227 229 231 233 233 230 226 224 223 223 226 227 227 228 229 228 229 230 231 232 233 234 236 237 238 239 241 244 246 246 248 250 251 252 253 253 254 256 259 260 261 262 265 267 270 272 274 276 279 283 286
265 261 259 254 250 248 246 245 245 244 241 239 240 241 242 241 240 239 239 238 236 235 234 234 233 228 222 224 227 226 225 223 223 224 224 225 227 228 231 232 231 228 224 223 223 224 225 225 227 228 227 227 228 230 231 233 233 234 235 236 237 240 243 245 246 248 250 252 255 256 256 257 258 259 260 261 263 265 267 269 271 274 277 280 283 285
274 266 262 258 254 249 246 244 244 244 241 238 238 239 240 240 240 240 239 239 238 236 234 234 234 230 222 221 226 226 225 223 222 222 222 224 225 226 229 231 231 229 225 223 222 223 224 225 225 226 226 226 227 228 230 231 232 233 235 236 237 239 241 244 246 248 250 253 256 257 257 257 257 258 260 261 263 265 267 269 271 274 277 280 282 283
282 275 269 263 258 254 249 245 242 242 241 240 239 238 238 238 238 238 239 239 238 237 235 235 236 233 223 220 224 226 225 223 221 221 221 222 224 225 227 229 230 229 226 224 222 222 223 224 224 225 226 226 227 227 228 230 232 233 235 236 238 239 241 243 245 247 249 251 253 255 255 255 256 258 261 262 263 265 268 270 272 274 276 279 280 282
289 282 276 271 265 260 255 249 244 241 241 240 240 239 238 237 236 236 237 238 238 237 235 235 236 234 226 218 222 226 225 223 221 221 221 221 223 224 225 227 229 230 228 225 222 221 222 223 224 225 225 226 227 227 228 230 231 233 235 236 238 240 241 242 244 245 246 247 249 252 254 254 256 259 261 263 264 266 268 270 271 273 275 277 279 280
290 285 280 275 272 267 261 255 249 243 240 239 239 238 238 237 235 235 235 236 236 234 233 234 235 235 228 219 221 224 225 225 222 220 220 220 220 222 224 225 228 229 229 227 224 222 221 223 224 225 225 226 227 228 228 229 230 232 234 236 238 240 242 243 244 245 245 246 248 250 252 253 256 258 260 262 264 266 268 269 270 272 274 276 278 279
295 288 282 276 274 271 267 262 255 249 243 240 239 238 238 239 238 236 235 234 233 231 231 232 233 234 230 223 223 224 224 225 223 219 219 220 219 220 223 224 226 228 228 227 225 223 221 222 224 226 225 225 226 227 228 228 229 231 233 235 237 239 241 243 244 245 246 247 248 249 251 253 255 257 259 261 264 266 267 268 270 272 273 275 277 279
316 302 291 282 275 271 270 267 262 257 251 244 241 239 238 239 239 237 235 234 232 229 229 231 232 232 230 225 224 225 225 225 224 221 219 219 219 219 221 224 225 226 228 227 226 224 222 221 223 225 225 224 225 226 227 227 228 230 232 234 236 238 240 242 243 244 245 247 248 249 250 252 255 257 260 262 264 265 267 268 270 271 273 275 277 280
325 315 302 292 283 274 270 268 266 263 259 253 246 241 237 236 237 236 236 235 234 230 227 228 230 231 229 226 223 223 224 225 225 223 220 219 220 219 220 222 224 225 227 227 226 224 222 221 221 224 225 224 224 225 227 227 228 230 231 233 234 236 238 240 242 243 245 247 248 249 250 252 255 257 260 262 264 265 266 267 268 270 272 275 278 281
328 318 308 299 290 281 273 268 266 264 262 258 253 246 240 237 238 237 237 239 239 236 231 229 228 228 227 225 223 222 222 223 223 222 222 220 219 219 220 221 222 224 225 226 225 223 222 220 220 223 224 223 223 225 226 227 228 229 230 231 233 234 236 239 241 243 245 246 247 248 250 252 254 255 258 261 263 264 265 266 268 270 273 276 279 281
332 323 313 305 297 288 280 273 268 264 261 259 257 252 246 243 241 238 235 237 238 236 233 231 228 226 225 222 221 222 220 220 220 220 220 220 219 219 218 220 221 222 223 225 225 224 221 220 220 221 223 223 221 223 225 226 227 228 229 231 232 233 235 237 239 241 243 245 246 248 249 251 252 253 255 258 261 263 265 266 268 271 275 277 279 280
338 331 323 316 309 300 293 284 277 270 263 259 258 256 251 247 244 241 237 235 236 233 229 230 227 225 222 218 218 220 218 218 218 217 218 219 219 218 217 218 220 220 222 223 224 224 222 220 220 220 222 222 221 221 223 225 226 227 228 230 231 232 233 236 237 240 242 244 245 246 248 249 251 252 254 256 259 262 264 267 270 273 275 277 278 278
346 341 336 332 327 319 310 300 290 282 273 263 259 256 254 250 245 242 240 236 234 230 225 224 223 223 221 216 216 218 217 216 217 216 216 217 218 218 216 217 219 220 220 222 223 223 222 219 219 220 221 222 221 220 221 224 225 226 227 229 230 231 233 235 238 240 242 243 244 245 246 248 249 251 253 256 258 261 265 268 270 273 274 275 276 277
354 349 344 340 338 333 325 314 303 294 284 273 264 259 255 252 247 242 240 238 234 229 223 220 220 221 221 216 214 216 215 214 215 215 214 215 216 217 216 216 218 219 220 221 222 222 221 219 218 219 220 221 220 219 219 222 223 224 226 227 229 230 232 235 238 240 242 243 244 245 246 247 249 251 253 256 259 262 265 267 269 271 273 273 274 275
357 353 347 344 342 339 335 328 318 308 297 286 273 264 257 252 248 244 240 238 236 232 225 220 218 219 219 216 214 215 214 213 214 214 214 214 215 216 215 215 216 218 219 220 221 222 221 219 218 218 219 220 220 218 218 220 222 222 224 225 227 229 231 235 238 241 242 243 244 245 246 247 249 251 254 256 259 261 263 265 267 269 270 271 272 273
359 355 350 349 346 341 338 335 330 322 311 298 283 269 258 250 245 242 237 232 231 230 225 218 215 215 216 215 214 215 215 213 213 213 214 214 214 214 214 214 214 216 217 219 220 220 220 219 217 218 218 219 219 218 218 219 220 221 222 224 226 229 231 234 237 239 240 242 243 244 245 247 249 252 254 256 258 259 261 263 264 266 267 268 269 270
0 1 358 354 349 343 341 340 337 332 324 311 295 278 261 248 242 239 234 226 220 219 219 216 212 211 212 213 214 215 215 215 214 213 214 215 215 214 213 213 213 214 216 217 218 219 219 218 216 217 217 218 218 218 217 217 219 219 221 224 226 228 231 233 235 237 238 240 241 242 244 247 249 251 252 254 255 256 258 260 261 262 264 265 267 268
360 5 7 2 353 345 344 346 346 344 340 330 315 294 270 251 241 238 236 229 220 215 214 212 211 210 210 212 213 213 214 215 214 213 213 214 215 214 212 212 212 213 214 215 216 217 218 217 216 216 216 217 217 217 216 216 217 218 220 223 225 227 229 231 233 235 236 237 238 240 243 245 246 248 248 250 251 253 255 257 258 260 261 263 264 266
1 5 6 7 4 357 354 357 360 1 357 347 335 316 287 254 231 222 224 224 219 215 213 212 210 210 211 212 213 212 212 213 213 212 212 213 215 214 212 211 211 212 213 214 214 215 216 216 215 215 215 215 216 216 215 215 216 217 220 222 223 224 226 228 230 231 233 234 235 238 240 241 241 243 244 245 247 250 252 254 255 257 259 261 263 265
3 5 6 10 11 9 9 12 13 14 12 6 356 338 308 264 220 203 202 207 211 213 213 212 211 212 213 214 215 214 212 212 212 212 211 212 213 213 211 211 211 211 211 212 213 214 214 214 213 213 213 214 214 215 214 214 215 216 220 222 222 223 224 225 226 228 229 231 233 235 236 236 237 238 240 242 245 248 250 252 253 255 258 261 264 265
359 4 9 13 15 16 17 19 21 23 24 24 20 8 345 277 210 193 192 197 201 205 208 209 210 211 213 214 215 214 213 212 211 211 211 212 212 212 210 210 211 211 211 211 212 212 213 213 212 212 212 212 213 213 213 213 213 216 219 221 221 221 222 222 223 225 227 230 232 233 233 234 235 236 238 241 244 247 249 250 252 255 258 261 264 264
352 0 10 14 17 19 21 23 26 27 28 32 35 41 55 83 164 174 180 187 191 197 202 204 205 206 207 208 211 212 212 212 212 211 212 212 211 211 209 208 209 209 210 210 210 211 211 211 211 210 210 211 211 211 211 212 213 216 220 221 220 221 221 220 221 223 225 228 230 231 233 233 235 237 239 241 244 246 248 250 253 255 258 261 263 263
349 356 6 14 20 21 23 26 28 29 32 37 42 55 77 94 120 148 168 180 186 189 194 199 201 201 202 204 206 209 211 212 213 213 213 211 210 210 210 210 209 207 207 208 209 209 209 209 209 209 209 210 210 210 210 211 213 217 221 221 221 221 221 220 220 222 225 228 230 232 234 235 237 238 239 241 244 246 248 250 253 256 259 262 262 260
352 352 360 12 20 24 28 30 31 34 37 41 49 60 77 91 106 130 155 172 181 182 182 184 187 189 193 197 200 205 207 209 211 212 212 210 208 207 208 210 209 206 206 207 207 207 207 207 208 208 208 208 209 209 210 210 213 218 220 220 220 220 219 218 219 221 224 227 230 231 234 236 238 239 240 241 244 246 248 250 253 256 259 261 261 258
354 349 353 10 22 26 31 33 37 41 43 49 60 70 79 86 96 115 137 153 167 173 173 174 174 176 180 186 193 201 205 207 208 208 208 208 207 206 206 207 207 205 205 205 206 206 206 206 207 207 207 207 207 208 209 210 213 217 219 219 219 218 217 217 217 219 223 227 229 230 233 236 238 239 239 241 244 246 248 250 253 256 259 259 259 258
356 350 351 11 27 29 32 37 45 53 56 61 72 80 83 85 90 102 120 136 145 154 163 167 169 172 175 179 186 194 202 207 208 205 204 205 206 205 204 203 204 204 204 204 204 204 204 205 206 206 205 205 206 207 208 210 213 216 217 218 217 217 216 216 217 219 222 226 228 230 233 236 238 239 240 241 244 247 249 250 253 256 259 259 259 259
359 354 352 12 32 34 36 44 57 69 73 77 82 84 84 85 89 95 108 123 130 136 141 150 162 169 174 180 185 190 197 203 206 204 202 202 203 203 201 199 201 203 203 202 201 202 203 204 205 206 205 204 205 206 207 209 212 214 216 217 217 216 216 216 217 219 223 226 227 229 233 236 239 241 241 242 245 248 249 251 253 257 260 261 261 262
1 356 353 9 32 41 50 63 77 88 89 89 89 88 89 92 95 99 105 114 121 126 129 134 149 163 171 179 185 189 194 199 202 202 200 200 201 200 198 197 198 201 202 201 199 200 202 203 205 205 204 204 205 206 208 209 211 214 216 217 218 218 218 217 218 220 223 226 227 230 234 237 240 242 243 243 246 249 251 253 255 258 261 262 263 264
4 358 353 13 38 51 74 88 94 98 100 99 96 96 96 100 104 103 104 110 115 120 127 133 141 152 164 178 188 192 194 196 199 198 198 199 199 198 197 195 195 198 199 198 198 199 200 202 203 204 204 205 206 207 208 210 212 214 216 217 218 219 219 219 220 222 225 227 229 232 236 239 241 244 245 246 248 251 254 256 258 260 262 264 266 267
7 2 354 26 55 72 95 102 103 105 108 108 105 105 104 105 109 108 108 113 117 118 124 132 138 145 156 169 187 198 197 195 196 195 195 197 197 196 195 194 193 194 195 196 197 199 199 201 202 203 204 205 206 207 208 209 211 213 214 215 216 218 219 220 222 224 226 228 230 233 236 239 242 245 248 249 251 254 257 259 261 262 264 267 268 270
6 4 351 32 80 102 106 104 109 112 112 110 111 113 113 112 113 114 114 117 120 122 125 128 130 134 144 158 173 198 204 196 192 192 193 194 193 192 194 193 192 192 194 195 197 198 199 200 202 203 204 205 206 206 207 209 210 212 213 213 214 216 218 220 222 224 226 228 230 233 236 239 242 246 250 252 254 258 262 264 264 265 267 269 271 272
360 6 347 320 128 132 114 111 120 120 115 111 112 116 119 120 121 121 119 117 119 123 124 126 130 129 136 156 158 179 208 199 190 189 190 191 191 191 192 192 191 191 193 195 196 197 198 199 201 202 204 204 205 206 207 208 210 210 211 212 213 214 217 219 221 223 225 228 230 232 236 239 244 249 253 255 258 262 266 268 268 268 270 271 272 272
348 3 338 263 210 156 130 129 134 133 121 116 121 124 124 126 126 123 119 115 115 118 120 127 137 137 139 153 151 159 201 201 193 189 187 188 190 190 190 191 191 191 193 195 197 197 197 199 201 202 203 204 204 205 206 208 209 209 209 210 211 213 216 218 220 222 224 226 229 233 238 243 247 252 255 258 261 266 270 272 271 271 271 271 271 271
332 352 330 248 213 178 158 151 148 140 122 115 119 121 119 119 123 123 119 116 115 118 125 130 134 134 135 146 155 170 191 196 193 190 188 188 188 188 190 191 190 191 193 195 196 197 198 200 201 202 203 204 204 205 206 207 207 207 208 209 210 213 215 217 219 220 222 224 228 233 238 243 248 253 257 260 264 268 272 273 272 272 271 270 271 272
315 327 312 228 209 191 180 170 156 139 117 102 105 121 128 129 131 130 124 120 119 119 118 117 121 126 129 139 162 180 190 192 191 190 190 189 188 188 190 190 188 191 195 195 195 197 199 200 202 202 203 204 205 205 206 206 206 206 207 208 210 212 215 217 218 220 222 225 228 232 236 241 247 253 258 260 264 268 271 273 274 272 271 271 272 272
302 289 255 215 211 202 191 180 164 142 122 105 109 138 147 143 140 135 128 124 120 107 94 93 121 131 130 152 174 180 188 193 193 192 192 191 188 188 190 189 187 191 195 196 196 197 198 200 202 202 203 204 205 205 206 205 205 206 206 208 210 212 214 216 218 221 223 226 229 232 236 242 249 255 258 259 262 266 270 274 274 272 271 272 272 271
294 271 242 215 215 211 197 185 172 154 142 142 143 147 144 138 143 140 127 118 109 94 78 65 140 135 134 175 178 175 181 190 194 195 194 193 191 190 191 190 189 191 195 196 198 198 198 200 202 202 203 204 205 206 206 205 205 206 206 208 210 212 214 216 218 221 225 228 232 235 239 245 254 259 260 259 260 263 268 273 273 272 272 271 271 272
288 271 248 223 218 216 204 191 182 170 163 163 159 152 143 138 145 140 122 111 102 91 94 126 127 119 136 164 170 171 175 184 192 196 196 195 193 192 192 192 192 193 195 198 199 199 199 200 201 202 202 204 205 206 206 206 207 207 207 209 211 212 214 216 218 219 221 224 228 234 241 250 256 255 255 256 257 258 264 272 275 274 272 272 273 275
282 274 254 231 219 217 211 200 193 185 178 173 169 162 152 145 146 139 126 121 120 120 130 134 121 130 143 150 160 172 179 184 190 194 196 197 196 194 193 193 192 194 197 199 200 200 200 200 201 201 202 203 204 205 206 207 207 208 208 209 211 213 214 216 218 219 219 221 223 227 232 239 242 241 242 247 249 252 260 271 276 275 272 272 274 276
279 276 259 238 224 217 215 209 203 199 193 187 179 169 157 153 153 148 143 143 144 144 143 138 141 151 147 148 168 183 185 187 189 191 194 196 197 197 196 195 193 194 198 201 200 200 200 201 201 201 201 202 203 204 206 207 208 208 208 209 211 213 214 216 219 220 220 221 222 223 224 228 232 233 234 237 242 249 258 267 274 277 276 274 274 274
276 274 260 243 230 218 217 218 215 210 207 200 187 175 166 163 163 162 161 158 155 154 150 141 150 155 141 132 174 186 186 187 188 191 194 195 196 198 199 199 197 196 199 202 202 200 200 201 202 202 201 202 203 204 205 207 207 208 208 209 212 213 214 216 219 221 220 220 222 224 226 227 230 233 234 236 241 250 258 263 269 277 279 277 274 274
273 269 258 244 234 222 218 222 224 220 216 209 196 184 177 174 171 172 173 167 162 161 155 148 156 153 126 103 160 176 177 183 187 191 194 197 199 200 201 202 202 201 201 202 202 203 203 202 202 203 203 203 204 204 205 206 207 207 208 210 213 214 215 217 220 222 222 221 222 225 227 227 229 232 234 237 244 251 257 261 265 271 277 279 279 277
271 264 255 242 234 227 220 220 224 225 220 212 203 195 189 184 181 181 180 174 170 170 165 160 160 149 120 99 138 144 127 144 195 196 195 197 200 203 204 205 206 206 205 203 202 204 206 205 205 205 204 204 205 205 205 205 206 207 208 211 214 215 216 218 221 224 225 224 225 227 229 228 229 232 234 238 244 249 254 259 263 267 271 274 273 272
272 262 255 245 234 229 222 217 221 228 224 214 209 205 201 196 191 187 184 181 178 178 175 169 162 147 127 121 129 123 96 67 139 207 204 199 198 202 205 206 206 207 207 206 205 205 206 207 207 207 206 207 207 207 207 206 206 206 208 211 214 216 217 218 221 225 226 226 226 229 230 231 232 234 236 239 242 247 252 258 261 264 266 266 266 269
Height
10457 10459 10460 10457 10458 10461 10466 10473 10478 10485 10490 10494 10501 10507 10513 10520 10524 10528 10531 10535 10540 10549 10561 10570 10580 10586 10588 10590 10591 10594 10601 10610 10617 10616 10615 10621 10632 10642 10651 10660 10667 10672 10678 10679 10679 10685 10691 10697 10702 10707 10712 10717 10724 10729 10732 10735 10739 10741 10744 10747 10749 10751 10754 10757 10757 10759 10761 10763 10765 10768 10770 10772 10773 10773 10775 10777 10778 10779 10779 10780 10780 10781 10782 10782 10782 10782
10446 10448 10445 10443 10449 10455 10460 10465 10469 10474 10479 10482 10488 10494 10501 10508 10514 10516 10519 10523 10526 10536 10550 10555 10563 10575 10578 10579 10581 10586 10595 10605 10610 10610 10609 10611 10618 10631 10642 10651 10660 10665 10669 10671 10674 10680 10686 10692 10698 10702 10707 10713 10719 10722 10724 10728 10731 10735 10739 10741 10743 10746 10749 10750 10752 10755 10758 10759 10761 10763 10766 10768 10768 10769 10771 10773 10774 10775 10775 10775 10776 10777 10778 10779 10778 10778
10437 10435 10431 10435 10445 10449 10451 10454 10457 10461 10466 10471 10476 10481 10488 10496 10501 10503 10505 10509 10510 10522 10537 10540 10548 10564 10568 10568 10573 10580 10589 10599 10601 10601 10603 10602 10606 10620 10633 10643 10652 10657 10661 10665 10669 10674 10680 10686 10691 10696 10702 10708 10711 10713 10716 10721 10725 10730 10734 10735 10737 10740 10742 10744 10747 10751 10754 10756 10757 10759 10761 10764 10764 10765 10767 10769 10770 10771 10771 10771 10772 10773 10774 10775 10774 10774
10426 10423 10424 10431 10436 10438 10440 10443 10446 10451 10454 10459 10463 10469 10477 10482 10485 10489 10493 10495 10497 10509 10523 10526 10535 10552 10557 10558 10564 10571 10581 10589 10590 10592 10598 10598 10600 10611 10625 10635 10643 10650 10655 10659 10662 10667 10673 10678 10684 10691 10697 10701 10703 10706 10711 10715 10720 10725 10727 10728 10730 10733 10735 10737 10742 10746 10749 10752 10753 10754 10757 10759 10760 10761 10763 10764 10766 10767 10767 10768 10769 10770 10770 10771 10770 10770
10416 10415 10418 10422 10424 10426 10430 10433 10437 10440 10443 10448 10452 10458 10465 10467 10470 10476 10480 10482 10486 10498 10510 10514 10521 10538 10546 10546 10552 10561 10570 10579 10582 10585 10592 10594 10596 10602 10612 10625 10634 10643 10650 10653 10655 10660 10666 10672 10679 10684 10688 10693 10697 10702 10706 10709 10712 10716 10718 10720 10723 10726 10728 10731 10737 10741 10744 10747 10748 10750 10753 10755 10755 10757 10759 10760 10762 10763 10763 10764 10765 10766 10766 10766 10766 10766
10408 10408 10410 10410 10412 10416 10420 10423 10426 10428 10432 10437 10442 10448 10452 10453 10456 10462 10467 10470 10476 10487 10496 10499 10507 10527 10537 10536 10544 10553 10560 10571 10575 10577 10585 10590 10591 10592 10600 10614 10626 10634 10642 10645 10648 10652 10659 10666 10671 10675 10681 10687 10692 10697 10700 10702 10705 10707 10710 10714 10718 10720 10722 10726 10732 10736 10739 10741 10743 10746 10748 10750 10751 10752 10754 10757 10758 10759 10759 10760 10761 10762 10762 10762 10762 10762
10399 10399 10401 10401 10403 10406 10410 10413 10414 10416 10422 10429 10435 10438 10438 10441 10445 10451 10457 10459 10468 10477 10481 10483 10496 10518 10529 10531 10540 10545 10551 10563 10567 10571 10581 10584 10586 10587 10590 10603 10615 10624 10632 10637 10640 10644 10651 10658 10662 10668 10675 10682 10687 10690 10691 10693 10697 10700 10705 10710 10712 10714 10717 10722 10727 10731 10733 10735 10738 10741 10743 10745 10746 10747 10750 10753 10754 10754 10755 10756 10757 10757 10758 10758 10758 10758
10392 10391 10392 10394 10395 10397 10400 10402 10403 10407 10417 10424 10426 10424 10425 10432 10437 10442 10446 10448 10458 10465 10465 10474 10488 10505 10521 10528 10530 10532 10539 10552 10558 10566 10576 10577 10579 10581 10582 10590 10603 10613 10621 10627 10632 10636 10642 10650 10655 10661 10668 10674 10678 10679 10681 10687 10692 10696 10700 10704 10706 10709 10712 10717 10722 10725 10727 10729 10732 10736 10738 10741 10742 10742 10745 10748 10749 10749 10750 10751 10752 10753 10753 10754 10754 10754
10385 10384 10384 10386 10388 10389 10391 10394 10396 10401 10409 10412 10410 10409 10414 10421 10425 10430 10432 10436 10444 10447 10453 10468 10476 10488 10512 10518 10512 10514 10525 10538 10547 10557 10566 10567 10568 10572 10573 10578 10590 10602 10611 10617 10623 10628 10634 10641 10647 10652 10658 10664 10667 10670 10676 10682 10686 10689 10693 10697 10701 10704 10707 10712 10716 10719 10721 10724 10727 10730 10733 10736 10737 10738 10741 10744 10744 10745 10746 10747 10748 10748 10748 10749 10750 10751
10378 10378 10378 10379 10380 10381 10383 10386 10388 10391 10394 10396 10396 10399 10404 10408 10413 10417 10419 10424 10429 10432 10447 10462 10462 10472 10496 10502 10494 10498 10511 10526 10537 10544 10551 10555 10558 10562 10565 10568 10577 10589 10600 10608 10615 10620 10625 10633 10639 10643 10648 10653 10657 10663 10670 10674 10678 10683 10688 10693 10696 10699 10703 10707 10711 10714 10716 10719 10722 10725 10728 10731 10732 10733 10736 10739 10740 10740 10742 10743 10743 10743 10744 10745 10746 10746
10371 10371 10371 10372 10373 10374 10376 10378 10380 10381 10382 10384 10387 10390 10392 10395 10401 10403 10406 10412 10414 10424 10446 10457 10450 10452 10471 10485 10485 10488 10500 10515 10524 10531 10540 10546 10550 10555 10558 10560 10566 10576 10588 10598 10606 10613 10618 10624 10629 10633 10640 10646 10651 10657 10663 10668 10674 10680 10685 10688 10691 10694 10699 10703 10707 10710 10712 10715 10717 10720 10723 10726 10727 10729 10732 10734 10735 10736 10737 10738 10738 10739 10739 10741 10742 10742
10367 10366 10365 10365 10366 10368 10369 10371 10372 10373 10373 10375 10377 10380 10381 10384 10389 10390 10396 10400 10403 10421 10443 10442 10429 10427 10449 10476 10481 10479 10490 10503 10512 10522 10531 10537 10542 10546 10550 10552 10556 10564 10577 10588 10597 10605 10610 10616 10621 10627 10635 10641 10645 10652 10659 10665 10671 10676 10679 10683 10686 10691 10695 10699 10702 10705 10708 10710 10712 10716 10720 10721 10722 10725 10728 10729 10731 10732 10733 10733 10734 10734 10735 10736 10737 10738
10364 10362 10361 10360 10360 10360 10362 10364 10365 10366 10366 10367 10368 10369 10371 10374 10377 10380 10386 10389 10395 10413 10421 10414 10408 10412 10436 10467 10473 10472 10482 10490 10498 10510 10518 10524 10530 10536 10540 10544 10547 10555 10568 10580 10589 10598 10604 10610 10615 10621 10629 10635 10641 10650 10656 10661 10666 10670 10674 10678 10683 10687 10690 10694 10698 10701 10703 10705 10708 10713 10716 10716 10718 10720 10723 10724 10726 10727 10728 10729 10729 10730 10730 10732 10733 10733
10361 10359 10357 10356 10355 10354 10354 10356 10357 10358 10359 10360 10360 10361 10363 10366 10368 10373 10378 10378 10383 10394 10396 10396 10401 10406 10428 10457 10466 10467 10472 10474 10480 10494 10504 10511 10519 10526 10530 10534 10540 10546 10557 10570 10581 10590 10598 10605 10610 10615 10622 10629 10638 10645 10649 10654 10660 10663 10668 10674 10679 10682 10685 10690 10693 10695 10696 10699 10704 10709 10712 10712 10713 10716 10718 10720 10721 10723 10724 10724 10725 10725 10726 10727 10728 10729
10356 10355 10353 10352 10351 10350 10349 10349 10349 10350 10351 10353 10354 10355 10358 10360 10360 10363 10366 10364 10369 10377 10385 10392 10397 10403 10425 10447 10454 10456 10460 10462 10469 10484 10496 10503 10510 10519 10523 10527 10533 10538 10546 10559 10571 10581 10591 10598 10604 10608 10615 10625 10633 10638 10642 10648 10653 10658 10664 10670 10673 10676 10681 10685 10687 10689 10690 10693 10700 10706 10707 10708 10709 10711 10713 10715 10716 10718 10719 10720 10721 10721 10721 10722 10723 10724
10353 10351 10350 10348 10347 10346 10345 10343 10343 10344 10344 10345 10347 10348 10351 10350 10349 10353 10355 10356 10360 10369 10381 10388 10390 10400 10417 10430 10437 10443 10449 10454 10464 10478 10489 10495 10504 10512 10516 10520 10525 10530 10537 10547 10559 10571 10581 10589 10596 10601 10608 10619 10626 10630 10636 10642 10648 10654 10659 10663 10666 10670 10676 10680 10682 10683 10685 10689 10697 10701 10703 10704 10706 10707 10709 10709 10711 10713 10714 10715 10716 10716 10717 10718 10719 10719
10352 10349 10347 10345 10343 10341 10341 10339 10338 10339 10338 10338 10339 10341 10342 10342 10344 10350 10353 10353 10356 10366 10378 10381 10384 10394 10404 10415 10427 10432 10436 10444 10455 10469 10479 10487 10496 10501 10505 10510 10514 10519 10526 10535 10547 10560 10571 10581 10589 10595 10602 10611 10620 10625 10631 10637 10642 10647 10651 10656 10660 10665 10670 10675 10676 10677 10679 10685 10692 10697 10699 10700 10702 10703 10704 10705 10706 10707 10709 10710 10710 10711 10712 10714 10714 10714
10350 10347 10344 10342 10340 10338 10336 10335 10334 10334 10333 10333 10333 10334 10336 10337 10340 10344 10347 10347 10350 10359 10368 10370 10378 10387 10393 10406 10416 10414 10420 10432 10443 10456 10466 10474 10481 10485 10491 10496 10499 10506 10515 10524 10536 10550 10563 10575 10583 10589 10595 10604 10614 10620 10624 10630 10635 10639 10644 10649 10654 10659 10665 10668 10667 10669 10673 10681 10688 10692 10694 10696 10698 10699 10700 10700 10701 10702 10703 10704 10706 10707 10708 10709 10709 10709
10346 10344 10341 10339 10337 10335 10333 10331 10330 10329 10329 10329 10329 10329 10330 10332 10334 10337 10339 10342 10344 10352 10359 10363 10371 10376 10381 10394 10399 10398 10410 10423 10433 10445 10453 10458 10461 10465 10474 10481 10485 10496 10506 10516 10528 10542 10556 10569 10577 10583 10590 10598 10607 10613 10618 10623 10627 10633 10638 10644 10649 10654 10657 10658 10658 10663 10670 10678 10684 10687 10690 10691 10693 10694 10695 10695 10696 10697 10699 10700 10701 10702 10703 10704 10704 10705
10343 10340 10338 10335 10333 10331 10330 10328 10326 10325 10325 10325 10325 10324 10325 10327 10329 10331 10332 10335 10339 10345 10351 10355 10360 10364 10370 10381 10386 10391 10404 10415 10421 10428 10434 10439 10444 10451 10464 10473 10479 10491 10501 10510 10522 10535 10549 10562 10570 10577 10584 10592 10600 10607 10612 10617 10622 10629 10634 10639 10644 10648 10649 10650 10654 10660 10667 10674 10679 10682 10684 10686 10687 10688 10690 10691 10692 10693 10695 10695 10696 10697 10698 10699 10699 10700
10341 10337 10335 10332 10330 10328 10327 10325 10324 10322 10321 10321 10321 10321 10322 10323 10325 10326 10327 10331 10334 10339 10344 10348 10352 10356 10362 10372 10380 10386 10394 10400 10404 10410 10417 10423 10431 10442 10457 10467 10477 10490 10499 10507 10517 10528 10542 10555 10564 10571 10578 10585 10593 10600 10606 10612 10619 10625 10629 10635 10639 10641 10643 10646 10650 10656 10663 10669 10673 10676 10679 10680 10681 10683 10685 10686 10687 10689 10690 10690 10691 10692 10693 10694 10695 10695
10339 10336 10333 10331 10328 10325 10324 10322 10321 10320 10319 10318 10319 10319 10319 10320 10321 10322 10324 10328 10331 10335 10340 10344 10348 10353 10358 10368 10374 10377 10381 10386 10391 10398 10406 10413 10422 10434 10448 10460 10473 10485 10494 10502 10512 10522 10535 10549 10558 10565 10572 10579 10586 10595 10602 10609 10614 10620 10625 10630 10633 10635 10639 10642 10646 10653 10659 10663 10667 10670 10672 10674 10676 10678 10680 10682 10683 10684 10685 10686 10687 10688 10688 10689 10690 10690
10339 10336 10332 10329 10327 10324 10323 10321 10318 10317 10317 10316 10316 10316 10317 10317 10318 10319 10321 10324 10327 10331 10335 10339 10343 10348 10354 10361 10364 10365 10370 10377 10383 10391 10399 10408 10418 10428 10441 10455 10467 10477 10487 10496 10506 10516 10528 10541 10551 10558 10566 10574 10583 10591 10598 10604 10611 10616 10621 10623 10626 10630 10635 10639 10643 10649 10654 10658 10661 10664 10666 10668 10671 10674 10675 10677 10678 10679 10680 10681 10683 10683 10683 10684 10685 10685
10341 10337 10333 10329 10327 10324 10322 10320 10318 10316 10315 10314 10314 10314 10314 10314 10315 10316 10318 10320 10322 10325 10328 10333 10337 10341 10345 10350 10353 10356 10362 10370 10378 10388 10396 10404 10413 10422 10435 10448 10458 10470 10480 10489 10499 10509 10520 10533 10544 10551 10560 10570 10579 10587 10594 10601 10607 10612 10615 10617 10621 10627 10631 10634 10640 10645 10650 10654 10656 10658 10660 10663 10666 10669 10670 10672 10673 10674 10675 10677 10678 10679 10679 10679 10680 10681
10340 10337 10334 10331 10328 10325 10322 10319 10317 10315 10314 10313 10313 10312 10312 10312 10313 10314 10317 10319 10320 10322 10324 10327 10331 10335 10339 10341 10343 10348 10357 10366 10375 10384 10392 10400 10408 10417 10429 10440 10451 10461 10470 10480 10492 10503 10513 10526 10537 10547 10557 10567 10574 10582 10590 10597 10602 10606 10609 10612 10617 10622 10626 10631 10637 10642 10645 10648 10650 10653 10656 10659 10662 10664 10665 10667 10668 10669 10671 10673 10674 10674 10674 10675 10676 10677
10339 10335 10333 10331 10328 10325 10322 10319 10316 10315 10313 10313 10312 10312 10312 10311 10312 10313 10314 10316 10317 10319 10321 10324 10327 10331 10333 10335 10337 10344 10354 10363 10371 10380 10389 10396 10401 10410 10423 10434 10443 10452 10461 10472 10484 10495 10506 10520 10532 10542 10552 10561 10569 10578 10585 10592 10597 10600 10602 10605 10611 10616 10621 10628 10633 10637 10641 10643 10645 10648 10651 10654 10657 10659 10661 10663 10664 10665 10667 10668 10669 10669 10670 10671 10672 10672
10340 10336 10333 10330 10327 10324 10321 10319 10317 10315 10313 10312 10312 10313 10312 10312 10311 10311 10312 10313 10314 10317 10320 10323 10326 10329 10331 10335 10341 10349 10356 10362 10369 10377 10384 10389 10395 10406 10419 10428 10436 10446 10457 10468 10478 10488 10500 10514 10526 10537 10546 10555 10564 10572 10580 10586 10591 10594 10595 10599 10605 10611 10618 10624 10629 10633 10636 10638 10641 10644 10647 10649 10652 10654 10657 10659 10660 10662 10663 10664 10664 10665 10666 10667 10668 10668
10341 10338 10335 10332 10329 10326 10323 10320 10318 10315 10314 10313 10312 10312 10312 10312 10312 10311 10311 10312 10313 10316 10319 10322 10325 10329 10333 10339 10346 10352 10357 10361 10366 10372 10378 10384 10391 10402 10414 10425 10435 10445 10454 10463 10474 10485 10496 10509 10521 10530 10540 10549 10557 10565 10573 10579 10584 10586 10588 10593 10600 10607 10613 10620 10625 10629 10632 10633 10636 10639 10642 10644 10647 10651 10654 10655 10657 10657 10658 10659 10660 10661 10662 10663 10664 10664
10344 10340 10336 10333 10330 10328 10325 10322 10320 10318 10316 10314 10313 10313 10312 10312 10312 10312 10312 10313 10314 10316 10318 10321 10324 10328 10334 10339 10345 10351 10356 10360 10364 10369 10374 10380 10388 10398 10409 10418 10427 10438 10449 10459 10470 10480 10491 10504 10514 10523 10533 10542 10550 10559 10566 10572 10577 10579 10581 10588 10596 10603 10610 10616 10621 10624 10626 10629 10632 10634 10637 10640 10644 10647 10650 10651 10652 10653 10654 10655 10656 10657 10659 10660 10660 10661
10345 10341 10338 10335 10332 10330 10327 10325 10322 10321 10319 10317 10316 10315 10314 10314 10314 10314 10314 10314 10315 10317 10320 10324 10327 10332 10336 10340 10345 10350 10355 10360 10363 10367 10372 10379 10386 10396 10404 10409 10417 10430 10443 10453 10463 10474 10486 10498 10508 10517 10527 10535 10544 10553 10561 10567 10571 10573 10576 10586 10595 10601 10607 10613 10617 10620 10622 10625 10627 10630 10633 10637 10640 10643 10646 10647 10648 10649 10650 10651 10652 10654 10655 10656 10657 10657
10346 10343 10339 10337 10335 10332 10330 10328 10325 10324 10322 10321 10319 10318 10317 10317 10316 10316 10316 10317 10318 10320 10323 10326 10329 10333 10337 10341 10345 10349 10353 10357 10360 10365 10370 10377 10384 10391 10398 10405 10415 10426 10436 10447 10458 10469 10480 10491 10501 10511 10520 10530 10540 10549 10556 10562 10565 10567 10573 10583 10591 10597 10603 10608 10612 10615 10618 10620 10622 10627 10630 10633 10636 10639 10642 10643 10643 10645 10647 10648 10649 10650 10651 10652 10653 10653
10347 10344 10341 10339 10337 10335 10333 10331 10329 10327 10325 10323 10322 10321 10320 10319 10319 10319 10319 10320 10321 10323 10325 10327 10330 10333 10337 10341 10345 10349 10352 10354 10356 10360 10366 10374 10382 10388 10394 10402 10413 10423 10432 10443 10455 10465 10476 10487 10496 10505 10516 10526 10535 10543 10550 10555 10558 10562 10570 10580 10587 10592 10598 10603 10607 10610 10612 10615 10619 10624 10627 10629 10632 10635 10637 10639 10640 10641 10643 10644 10645 10646 10647 10648 10649 10649
10347 10345 10343 10341 10339 10337 10335 10333 10331 10330 10328 10326 10325 10323 10322 10322 10322 10323 10323 10323 10324 10326 10328 10330 10333 10335 10338 10342 10345 10348 10351 10354 10357 10361 10367 10374 10381 10387 10393 10402 10411 10420 10429 10440 10452 10464 10475 10484 10491 10500 10511 10520 10529 10537 10543 10548 10552 10558 10567 10575 10581 10587 10593 10598 10602 10605 10608 10612 10617 10621 10623 10625 10628 10631 10633 10635 10636 10638 10640 10641 10642 10643 10643 10644 10645 10646
10347 10346 10343 10341 10340 10338 10337 10336 10334 10332 10331 10329 10327 10325 10325 10325 10325 10326 10326 10326 10327 10328 10330 10333 10335 10337 10339 10342 10344 10347 10350 10354 10358 10363 10368 10373 10377 10382 10390 10399 10408 10417 10426 10438 10451 10463 10473 10480 10488 10497 10506 10515 10523 10530 10535 10541 10547 10554 10561 10569 10576 10584 10590 10595 10598 10602 10605 10609 10614 10617 10619 10622 10624 10627 10630 10632 10633 10634 10636 10637 10638 10639 10639 10640 10641 10641
10348 10346 10344 10342 10341 10339 10339 10337 10336 10335 10333 10331 10330 10328 10328 10328 10328 10328 10329 10329 10330 10330 10332 10334 10337 10339 10341 10343 10345 10347 10350 10354 10358 10362 10366 10370 10373 10379 10387 10396 10406 10417 10427 10439 10451 10460 10468 10477 10486 10494 10503 10511 10518 10524 10531 10538 10545 10552 10560 10568 10577 10584 10589 10592 10595 10599 10603 10607 10610 10613 10616 10619 10621 10624 10626 10628 10630 10631 10632 10634 10635 10635 10635 10636 10637 10637
10349 10347 10345 10343 10342 10341 10340 10339 10337 10336 10335 10333 10332 10332 10331 10330 10329 10329 10330 10331 10332 10333 10334 10336 10338 10340 10342 10344 10347 10349 10351 10354 10357 10360 10365 10369 10373 10381 10389 10396 10405 10417 10428 10439 10448 10454 10463 10473 10482 10490 10499 10506 10513 10521 10530 10537 10544 10552 10560 10568 10576 10581 10586 10589 10593 10597 10601 10605 10608 10611 10613 10616 10618 10620 10623 10625 10626 10627 10629 10630 10631 10631 10632 10632 10632 10633
10350 10348 10346 10345 10343 10342 10341 10340 10339 10338 10337 10336 10335 10334 10334 10333 10331 10331 10332 10333 10333 10334 10336 10337 10338 10341 10343 10345 10348 10351 10352 10354 10356 10359 10363 10368 10376 10385 10393 10398 10406 10415 10426 10434 10442 10449 10459 10469 10478 10487 10495 10502 10511 10520 10528 10535 10542 10550 10559 10566 10573 10578 10583 10588 10592 10595 10598 10602 10605 10608 10610 10613 10615 10617 10619 10621 10622 10623 10625 10626 10627 10627 10628 10628 10628 10629
10351 10349 10347 10346 10344 10344 10343 10342 10341 10340 10339 10339 10338 10337 10336 10335 10334 10334 10334 10334 10335 10335 10336 10337 10339 10341 10343 10345 10349 10353 10354 10354 10356 10360 10364 10370 10378 10385 10392 10398 10405 10413 10423 10431 10438 10447 10457 10466 10475 10483 10492 10501 10510 10518 10525 10532 10540 10548 10557 10564 10570 10575 10580 10585 10588 10592 10595 10598 10601 10604 10607 10609 10612 10613 10615 10617 10618 10619 10621 10622 10623 10623 10624 10624 10624 10624
10351 10350 10348 10347 10345 10344 10344 10344 10343 10342 10341 10340 10340 10339 10338 10337 10336 10336 10336 10337 10337 10338 10338 10338 10339 10340 10344 10346 10349 10353 10357 10358 10358 10361 10366 10372 10379 10383 10389 10396 10404 10412 10421 10428 10436 10445 10455 10464 10472 10480 10489 10497 10506 10514 10521 10529 10537 10546 10554 10561 10566 10571 10576 10581 10584 10588 10591 10594 10597 10600 10603 10606 10608 10609 10611 10613 10614 10615 10616 10617 10619 10619 10619 10619 10619 10619
10351 10350 10348 10348 10347 10346 10345 10344 10344 10343 10342 10342 10341 10340 10340 10340 10339 10339 10339 10339 10340 10340 10340 10340 10341 10342 10344 10347 10350 10353 10358 10360 10361 10363 10366 10372 10377 10382 10388 10396 10404 10412 10420 10427 10436 10445 10454 10461 10469 10477 10485 10493 10502 10510 10518 10526 10535 10544 10551 10557 10562 10567 10572 10576 10579 10582 10586 10589 10593 10596 10599 10602 10604 10606 10607 10609 10610 10611 10612 10613 10615 10615 10615 10614 10614 10614
10351 10349 10348 10348 10348 10346 10345 10345 10344 10344 10344 10344 10343 10343 10342 10342 10342 10342 10342 10342 10342 10342 10342 10343 10344 10345 10346 10349 10351 10354 10356 10358 10362 10365 10368 10371 10376 10382 10389 10395 10404 10414 10421 10428 10438 10447 10453 10459 10466 10473 10481 10489 10498 10506 10515 10524 10532 10540 10546 10552 10558 10563 10567 10570 10574 10577 10581 10585 10589 10592 10595 10598 10600 10601 10603 10604 10605 10606 10607 10609 10610 10610 10610 10609 10609 10609
10350 10349 10348 10348 10348 10347 10346 10345 10345 10345 10346 10346 10345 10345 10344 10344 10344 10344 10344 10344 10344 10345 10346 10346 10347 10348 10349 10350 10352 10354 10356 10359 10363 10367 10370 10372 10377 10383 10389 10396 10408 10419 10425 10429 10436 10444 10451 10458 10465 10472 10480 10488 10496 10505 10513 10521 10529 10536 10542 10549 10554 10558 10561 10565 10570 10574 10577 10581 10583 10586 10589 10592 10594 10596 10597 10599 10600 10601 10602 10604 10604 10604 10604 10604 10604 10604
10350 10348 10347 10348 10348 10347 10346 10345 10345 10346 10346 10347 10347 10346 10345 10345 10345 10345 10346 10347 10347 10348 10350 10351 10350 10350 10351 10352 10353 10355 10358 10362 10365 10368 10372 10375 10379 10385 10390 10397 10408 10419 10424 10427 10432 10439 10447 10455 10463 10471 10480 10488 10495 10503 10510 10518 10525 10531 10538 10544 10549 10553 10557 10562 10566 10570 10573 10575 10578 10581 10585 10587 10589 10590 10592 10593 10595 10596 10597 10598 10598 10599 10599 10599 10598 10598
10348 10347 10347 10347 10347 10346 10346 10346 10345 10345 10346 10347 10348 10348 10348 10348 10347 10347 10348 10349 10350 10352 10353 10354 10353 10352 10353 10354 10355 10357 10360 10363 10367 10371 10374 10378 10381 10386 10392 10399 10406 10413 10418 10423 10428 10436 10445 10453 10461 10470 10479 10487 10494 10501 10508 10514 10521 10528 10534 10539 10544 10548 10553 10558 10562 10565 10569 10571 10574 10577 10579 10582 10584 10586 10586 10587 10589 10591 10592 10592 10593 10593 10594 10594 10593 10592
10346 10346 10346 10346 10346 10346 10346 10345 10345 10345 10345 10347 10347 10348 10349 10350 10350 10350 10350 10351 10353 10354 10355 10355 10355 10355 10356 10357 10359 10361 10363 10365 10368 10372 10376 10380 10383 10387 10393 10399 10406 10412 10416 10420 10426 10435 10443 10451 10460 10469 10478 10486 10493 10501 10507 10514 10520 10525 10531 10536 10540 10545 10549 10554 10558 10560 10562 10564 10567 10571 10575 10579 10583 10583 10582 10583 10584 10585 10586 10587 10588 10589 10590 10589 10588 10587
10344 10344 10345 10345 10345 10346 10346 10345 10345 10345 10345 10346 10346 10347 10348 10350 10351 10351 10351 10352 10354 10356 10356 10357 10357 10358 10359 10360 10363 10365 10365 10367 10369 10373 10377 10381 10385 10388 10392 10397 10404 10412 10416 10419 10426 10435 10443 10450 10458 10467 10475 10483 10491 10499 10505 10511 10517 10522 10527 10533 10537 10541 10545 10550 10553 10554 10554 10555 10560 10566 10571 10576 10579 10578 10577 10578 10580 10580 10581 10583 10584 10585 10585 10584 10583 10582
10343 10343 10344 10344 10344 10345 10345 10345 10344 10344 10344 10345 10346 10347 10348 10349 10350 10350 10351 10352 10354 10356 10357 10358 10359 10360 10361 10363 10365 10366 10367 10368 10371 10374 10377 10382 10386 10390 10393 10397 10403 10411 10415 10417 10424 10433 10441 10448 10456 10465 10473 10480 10488 10495 10501 10507 10513 10519 10525 10530 10533 10537 10541 10545 10548 10550 10551 10552 10555 10559 10563 10566 10568 10569 10571 10574 10575 10576 10578 10579 10580 10581 10581 10580 10578 10577
10342 10342 10343 10343 10343 10343 10344 10343 10343 10344 10344 10345 10345 10346 10347 10348 10349 10349 10350 10352 10354 10356 10357 10359 10360 10362 10364 10366 10367 10368 10369 10372 10374 10377 10380 10383 10387 10391 10395 10398 10403 10407 10411 10416 10424 10431 10438 10446 10455 10462 10470 10477 10483 10490 10497 10504 10511 10517 10522 10527 10530 10534 10538 10541 10543 10545 10547 10548 10550 10552 10554 10557 10560 10564 10568 10572 10573 10574 10574 10575 10576 10577 10576 10575 10574 10574
10340 10340 10341 10341 10341 10341 10341 10342 10342 10343 10343 10344 10345 10346 10346 10347 10348 10349 10350 10351 10354 10356 10357 10359 10361 10363 10366 10368 10370 10372 10374 10377 10379 10381 10383 10386 10389 10392 10396 10400 10404 10408 10411 10417 10426 10433 10439 10446 10453 10460 10467 10474 10480 10486 10493 10501 10507 10513 10519 10523 10527 10530 10534 10536 10538 10540 10543 10545 10546 10547 10548 10551 10555 10560 10564 10568 10570 10571 10571 10572 10572 10572 10573 10572 10570 10570
10337 10337 10337 10338 10338 10338 10339 10340 10341 10342 10343 10344 10345 10345 10345 10346 10346 10347 10349 10351 10354 10355 10356 10358 10361 10364 10366 10369 10372 10377 10381 10384 10385 10385 10385 10387 10390 10394 10397 10402 10407 10411 10415 10421 10428 10435 10441 10447 10453 10459 10466 10471 10477 10483 10490 10496 10503 10510 10516 10520 10522 10525 10528 10532 10535 10537 10540 10542 10543 10544 10545 10548 10551 10555 10559 10562 10565 10566 10566 10567 10567 10568 10570 10570 10567 10565
10334 10334 10334 10334 10334 10335 10336 10337 10339 10340 10342 10343 10343 10344 10344 10345 10345 10346 10348 10350 10353 10355 10356 10358 10361 10363 10365 10369 10374 10378 10383 10387 10389 10389 10388 10388 10390 10393 10397 10402 10407 10412 10418 10424 10430 10436 10442 10448 10454 10460 10465 10470 10476 10482 10488 10494 10500 10506 10511 10513 10516 10519 10524 10528 10532 10534 10536 10538 10540 10541 10543 10545 10547 10550 10553 10556 10558 10560 10560 10560 10561 10562 10566 10566 10563 10561